Weather History for Martinsville, VA

Change the Weather History Date:

Wednesday, October 2, 2013

  Actual Average (KGSO) Record (KGSO)
Temperature  
Mean Temperature 66 °F 64 °F  
Max Temperature 84 °F 74 °F 91 °F (1986)
Min Temperature 48 °F 54 °F 32 °F (1947)
Degree Days  
Heating Degree Days 0 3  
Month to date heating degree days 6  
Since 1 July heating degree days 37  
Cooling Degree Days 1 2  
Month to date cooling degree days 5  
Year to date cooling degree days 1452  
Growing Degree Days 16 (Base 50)    
Moisture  
Dew Point 57 °F    
Average Humidity 79    
Maximum Humidity 99    
Minimum Humidity 38    
Precipitation  
Precipitation 0.00 in 0.10 in 1.15 in (1929)
Month to date precipitation 0.20  
Year to date precipitation 33.18  
Sea Level Pressure  
Sea Level Pressure 30.14 in    
Wind  
Wind Speed 0 mph (NW)    
Max Wind Speed 8 mph    
Max Gust Speed -    
Visibility 8 miles    
Events      
T = Trace of Precipitation, MM = Missing Value Source: NWS Daily Summary

Daily Weather History Graph

Daily Weather History Graph

Search for Another Location

Airport:

Trip Planner

Search our weather history database for the weather conditions in past years. The results will help you decide how hot, cold, wet, or windy it might be!

Date:

Astronomy

Oct. 02, 2013 Rise Set
Actual Time 7:16 AM EDT 7:01 PM EDT
Civil Twilight 6:50 AM EDT 7:27 PM EDT
Nautical Twilight 6:20 AM EDT 7:57 PM EDT
Astronomical Twilight 5:50 AM EDT 8:27 PM EDT
Moon 4:50 AM EDT (10/2) 5:34 PM EDT (10/2)
Length of Visible Light 12h 36m
Length of Day
11h 45m
Waning Crescent, 6% of the Moon is Illuminated
Oct 2
Waning Crescent
Oct 4
New
Oct 11
First Quarter
Oct 18
Full
Oct 26
Last Quarter

Hourly Weather History & Observations

Time (EDT) Temp. Heat Index Dew Point Humidity Pressure Visibility Wind Dir Wind Speed Gust Speed Precip Events Conditions
12:15 AM 55.9 °F - 55.4 °F 98% 30.14 in 1.2 mi Calm Calm - N/A   Mist
12:35 AM 55.0 °F - 54.5 °F 98% 30.13 in 4.0 mi Calm Calm - N/A   Clear
12:55 AM 54.7 °F - 54.1 °F 98% 30.13 in 5.0 mi Calm Calm - N/A   Clear
1:15 AM 54.1 °F - 53.6 °F 98% 30.13 in 1.0 mi Calm Calm - N/A   Mist
1:35 AM 53.8 °F - 53.2 °F 98% 30.13 in 7.0 mi Calm Calm - N/A   Clear
1:55 AM 54.7 °F - 54.3 °F 99% 30.14 in 5.0 mi Calm Calm - N/A   Clear
2:15 AM 52.9 °F - 52.2 °F 97% 30.14 in 4.0 mi Calm Calm - N/A   Clear
2:35 AM 53.1 °F - 52.5 °F 98% 30.14 in 4.0 mi Calm Calm - N/A   Clear
2:55 AM 52.5 °F - 52.0 °F 98% 30.14 in 5.0 mi Calm Calm - N/A   Clear
3:15 AM 52.0 °F - 51.3 °F 97% 30.13 in 5.0 mi Calm Calm - N/A   Clear
3:35 AM 51.4 °F - 50.9 °F 98% 30.13 in 1.8 mi Calm Calm - N/A   Mist
3:55 AM 51.4 °F - 50.9 °F 98% 30.13 in 5.0 mi Calm Calm - N/A   Clear
4:15 AM 50.7 °F - 50.0 °F 97% 30.13 in 2.0 mi Calm Calm - N/A   Clear
4:35 AM 51.6 °F - 51.1 °F 98% 30.13 in 7.0 mi Calm Calm - N/A   Clear
4:55 AM 50.9 °F - 50.2 °F 97% 30.13 in 4.0 mi Calm Calm - N/A   Clear
5:15 AM 50.0 °F - 49.5 °F 98% 30.13 in 4.0 mi Calm Calm - N/A   Clear
5:35 AM 50.2 °F - 49.6 °F 98% 30.14 in 4.0 mi Calm Calm - N/A   Clear
5:55 AM 50.0 °F - 49.5 °F 98% 30.15 in 10.0 mi Calm Calm - N/A   Clear
6:15 AM 50.0 °F - 49.3 °F 97% 30.15 in 7.0 mi Calm Calm - N/A   Clear
6:35 AM 49.3 °F - 48.7 °F 98% 30.15 in 5.0 mi Calm Calm - N/A   Clear
6:55 AM 49.1 °F - 48.4 °F 97% 30.15 in 4.0 mi Calm Calm - N/A   Clear
7:15 AM 48.6 °F - 48.2 °F 99% 30.17 in 5.0 mi Calm Calm - N/A   Clear
7:35 AM 48.4 °F - 47.8 °F 98% 30.17 in 5.0 mi Calm Calm - N/A   Clear
7:55 AM 50.2 °F - 49.6 °F 98% 30.17 in 7.0 mi Calm Calm - N/A   Clear
8:15 AM 52.3 °F - 51.4 °F 97% 30.18 in 10.0 mi Calm Calm - N/A   Clear
8:35 AM 54.7 °F - 52.9 °F 94% 30.18 in 10.0 mi Calm Calm - N/A   Clear
8:55 AM 57.4 °F - 55.2 °F 92% 30.19 in 10.0 mi Calm Calm - N/A   Clear
9:15 AM 60.8 °F - 57.4 °F 88% 30.19 in 10.0 mi Calm Calm - N/A   Clear
9:35 AM 63.9 °F - 58.3 °F 82% 30.20 in 10.0 mi Calm Calm - N/A   Clear
9:55 AM 67.3 °F - 60.3 °F 78% 30.20 in 10.0 mi Calm Calm - N/A   Clear
10:15 AM 70.5 °F - 61.0 °F 72% 30.20 in 10.0 mi Calm Calm - N/A   Clear
10:35 AM 73.0 °F - 59.9 °F 63% 30.20 in 10.0 mi Calm Calm - N/A   Clear
10:55 AM 75.0 °F - 60.8 °F 61% 30.20 in 10.0 mi NW 3.5 mph - N/A   Clear
11:15 AM 76.6 °F - 61.3 °F 59% 30.19 in 10.0 mi Calm Calm - N/A   Clear
11:35 AM 77.5 °F - 61.7 °F 58% 30.19 in 10.0 mi Calm Calm - N/A   Clear
11:55 AM 78.1 °F - 61.7 °F 57% 30.18 in 10.0 mi Calm Calm - N/A   Clear
12:15 PM 79.9 °F - 62.2 °F 55% 30.17 in 10.0 mi Calm Calm - N/A   Clear
12:35 PM 79.5 °F - 60.8 °F 53% 30.17 in 10.0 mi NW 4.6 mph - N/A   Mostly Cloudy
12:55 PM 81.1 °F 81.6 °F 59.9 °F 48% 30.16 in 10.0 mi Calm Calm - N/A   Mostly Cloudy
1:15 PM 80.8 °F 81.1 °F 58.5 °F 46% 30.15 in 10.0 mi Calm Calm - N/A   Mostly Cloudy
1:35 PM 80.6 °F 80.7 °F 57.0 °F 44% 30.15 in 10.0 mi North 3.5 mph - N/A   Scattered Clouds
1:55 PM 81.1 °F 81.4 °F 58.3 °F 46% 30.14 in 10.0 mi NW 8.1 mph - N/A   Mostly Cloudy
2:15 PM 82.2 °F 82.3 °F 58.6 °F 45% 30.13 in 10.0 mi West 3.5 mph - N/A   Scattered Clouds
2:35 PM 83.7 °F 83.0 °F 56.8 °F 40% 30.12 in 10.0 mi NNW 4.6 mph - N/A   Mostly Cloudy
2:55 PM 83.7 °F 83.1 °F 57.7 °F 41% 30.12 in 10.0 mi North 6.9 mph - N/A   Overcast
3:15 PM 81.7 °F 81.4 °F 56.7 °F 42% 30.11 in 10.0 mi Calm Calm - N/A   Scattered Clouds
3:35 PM 83.8 °F 83.0 °F 56.5 °F 39% 30.11 in 10.0 mi WNW 3.5 mph - N/A   Clear
3:55 PM 84.6 °F 83.5 °F 56.5 °F 38% 30.10 in 10.0 mi WSW 3.5 mph - N/A   Scattered Clouds
4:15 PM 83.5 °F 83.1 °F 57.9 °F 42% 30.10 in 10.0 mi SW 3.5 mph - N/A   Clear
4:35 PM 83.8 °F 83.0 °F 56.5 °F 39% 30.10 in 10.0 mi Calm Calm - N/A   Clear
4:55 PM 83.5 °F 82.9 °F 57.4 °F 41% 30.10 in 10.0 mi Calm Calm - N/A   Clear
5:15 PM 83.7 °F 83.3 °F 58.6 °F 42% 30.10 in 10.0 mi Calm Calm - N/A   Clear
5:35 PM 82.8 °F 82.8 °F 59.2 °F 45% 30.10 in 10.0 mi Calm Calm - N/A   Clear
5:55 PM 80.6 °F 81.6 °F 61.3 °F 52% 30.10 in 10.0 mi Calm Calm - N/A   Clear
6:15 PM 78.6 °F - 64.6 °F 62% 30.10 in 10.0 mi Calm Calm - N/A   Clear
6:35 PM 73.8 °F - 66.2 °F 77% 30.10 in 10.0 mi Calm Calm - N/A   Clear
6:55 PM 70.7 °F - 64.9 °F 82% 30.11 in 10.0 mi Calm Calm - N/A   Clear
7:15 PM 68.2 °F - 64.0 °F 87% 30.11 in 10.0 mi Calm Calm - N/A   Scattered Clouds
7:35 PM 66.9 °F - 63.5 °F 89% 30.11 in 10.0 mi Calm Calm - N/A   Clear
7:55 PM 65.7 °F - 62.8 °F 90% 30.12 in 10.0 mi Calm Calm - N/A   Clear
8:15 PM 63.7 °F - 62.4 °F 96% 30.13 in 10.0 mi Calm Calm - N/A   Clear
8:35 PM 63.3 °F - 61.5 °F 94% 30.13 in 10.0 mi Calm Calm - N/A   Clear
8:55 PM 62.6 °F - 61.2 °F 95% 30.14 in 10.0 mi Calm Calm - N/A   Clear
9:15 PM 62.1 °F - 60.4 °F 94% 30.14 in 10.0 mi Calm Calm - N/A   Clear
9:35 PM 62.1 °F - 61.0 °F 96% 30.14 in 7.0 mi Calm Calm - N/A   Clear
9:55 PM 61.0 °F - 59.4 °F 94% 30.15 in 5.0 mi Calm Calm - N/A   Clear
10:15 PM 60.8 °F - 59.9 °F 97% 30.15 in 3.0 mi Calm Calm - N/A   Clear
10:35 PM 59.9 °F - 58.8 °F 96% 30.15 in 1.5 mi Calm Calm - N/A   Mist
10:55 PM 59.2 °F - 58.3 °F 97% 30.15 in 5.0 mi Calm Calm - N/A   Clear
11:15 PM 59.2 °F - 58.3 °F 97% 30.15 in 7.0 mi Calm Calm - N/A   Clear
11:35 PM 58.3 °F - 57.4 °F 97% 30.15 in 2.5 mi Calm Calm - N/A   Clear
11:55 PM 59.0 °F - 58.3 °F 97% 30.15 in 4.0 mi Calm Calm - N/A   Clear